Location: Malvern Link
(52.1333°N, 2.3000°W)
Time: 15:20:34
(UTC+00:00)

SO-50 - Pass Details

Date: 08 July 2022
Orbit: 585 x 698 km, 64.6° (Epoch: 11 August)

Event Time Altitude Azimuth Distance (km) Brightness Sun altitude
Exits shadow 22:33:52 - 201° (SSW) 2,190 ? -12.3°
Reaches altitude 10° 22:34:11 10° 200° (SSW) 2,067 ? -12.3°
Maximum altitude 22:38:44 51° 125° (SE) 850 ? -12.6°
Drops below altitude 10° 22:43:27 10° 50° (NE) 2,141 ? -12.9°
Sets 22:45:52 0° 46° (NE) 3,073 ? -13.0°
